Weather History for Orange, MA

Change the Weather History Date:

Monday, October 10, 2011

  Actual Average Record
Temperature  
Mean Temperature 62 °F -  
Max Temperature 82 °F 60 °F 82 °F (2011)
Min Temperature 43 °F 36 °F 28 °F (2000)
Degree Days  
Heating Degree Days 2    
Growing Degree Days 12 (Base 50)    
Moisture  
Dew Point 51 °F    
Average Humidity 86    
Maximum Humidity 100    
Minimum Humidity 39    
Precipitation  
Precipitation 0.01 in - - ()
Sea Level Pressure  
Sea Level Pressure 30.21 in    
Wind  
Wind Speed 1 mph (North)    
Max Wind Speed 13 mph    
Max Gust Speed 18 mph    
Visibility 4 miles    
Events Fog    
Averages and records for this station are not official NWS values.
T = Trace of Precipitation, MM = Missing Value Source: NWS Daily Summary

Daily Weather History Graph

Daily Weather History Graph

Search for Another Location

Airport:

Trip Planner

Search our weather history database for the weather conditions in past years. The results will help you decide how hot, cold, wet, or windy it might be!

Date:

Astronomy

Oct. 10, 2011 Rise Set
Actual Time 6:56 AM EDT 6:15 PM EDT
Civil Twilight 6:27 AM EDT 6:43 PM EDT
Nautical Twilight 5:55 AM EDT 7:16 PM EDT
Astronomical Twilight 5:22 AM EDT 7:49 PM EDT
Moon 5:18 PM EDT (10/10) 5:34 AM EDT (10/10)
Length of Visible Light 12h 15m
Length of Day
11h 19m
Waxing Gibbous, 98% of the Moon is Illuminated
Oct 10
Waxing Gibbous
Oct 11
Full
Oct 19
Last Quarter
Oct 26
New
Nov 2
First Quarter

Hourly Weather History & Observations

Time (EDT) Temp. Heat Index Dew Point Humidity Pressure Visibility Wind Dir Wind Speed Gust Speed Precip Events Conditions
1:52 AM 48.0 °F - 46.9 °F 96% 30.26 in 0.5 mi Calm Calm - N/A Fog Fog
2:52 AM 46.9 °F - 46.0 °F 97% 30.25 in 0.5 mi Calm Calm - N/A Fog Fog
3:52 AM 46.0 °F - 45.0 °F 96% 30.24 in 0.5 mi Calm Calm - N/A Fog Fog
4:52 AM 45.0 °F - 45.0 °F 100% 30.25 in 0.5 mi Calm Calm - N/A Fog Fog
5:20 AM 44.6 °F - 44.6 °F 100% 30.25 in 1.0 mi Calm Calm - N/A   Mist
5:30 AM 44.6 °F - 44.6 °F 100% 30.24 in 0.8 mi Calm Calm - N/A   Mist
5:52 AM 44.1 °F - 44.1 °F 100% 30.25 in 0.2 mi Calm Calm - N/A Fog Fog
6:48 AM 44.6 °F - 42.8 °F 93% 30.25 in 1.2 mi Calm Calm - 0.01 in   Mostly Cloudy
6:52 AM 43.0 °F - 43.0 °F 100% 30.25 in 1.0 mi Calm Calm - 0.01 in   Mist
6:59 AM 44.6 °F - 42.8 °F 93% 30.25 in 0.5 mi Calm Calm - N/A Fog Fog
7:34 AM 44.6 °F - 44.6 °F 100% 30.25 in 1.2 mi Calm Calm - N/A   Mostly Cloudy
7:44 AM 44.6 °F - 44.6 °F 100% 30.25 in 0.8 mi Calm Calm - N/A   Mist
7:52 AM 45.0 °F - 45.0 °F 100% 30.26 in 0.2 mi Calm Calm - N/A Fog Fog
8:05 AM 46.4 °F - 46.4 °F 100% 30.25 in 2.0 mi Calm Calm - N/A   Mostly Cloudy
8:08 AM 48.2 °F - 46.4 °F 93% 30.25 in 3.0 mi Calm Calm - N/A   Scattered Clouds
8:52 AM 51.1 °F - 50.0 °F 96% 30.25 in 8.0 mi Calm Calm - N/A   Clear
9:52 AM 60.1 °F - 54.0 °F 80% 30.24 in 10.0 mi Calm Calm - N/A   Clear
10:52 AM 69.1 °F - 55.9 °F 63% 30.22 in 10.0 mi Calm Calm - N/A   Clear
11:52 AM 75.9 °F - 55.9 °F 50% 30.20 in 10.0 mi Calm Calm - N/A   Clear
12:52 PM 79.0 °F - 55.9 °F 45% 30.18 in 10.0 mi NE 5.8 mph - N/A   Clear
1:52 PM 81.0 °F 80.7 °F 55.0 °F 41% 30.16 in 10.0 mi Variable 5.8 mph - N/A   Clear
2:52 PM 82.0 °F 81.4 °F 55.0 °F 39% 30.14 in 10.0 mi NNW 12.7 mph 18.4 mph N/A   Clear
3:52 PM 81.0 °F 80.7 °F 55.0 °F 41% 30.13 in 10.0 mi NNW 11.5 mph - N/A   Clear
4:52 PM 79.0 °F - 55.0 °F 44% 30.13 in 10.0 mi NW 10.4 mph - N/A   Clear
5:52 PM 72.0 °F - 61.0 °F 68% 30.13 in 10.0 mi Calm Calm - N/A   Clear
6:52 PM 64.9 °F - 60.1 °F 84% 30.14 in 10.0 mi Calm Calm - N/A   Clear
7:52 PM 62.1 °F - 59.0 °F 90% 30.15 in 9.0 mi Calm Calm - N/A   Clear
8:52 PM 60.1 °F - 57.9 °F 93% 30.16 in 7.0 mi Calm Calm - N/A   Clear
9:52 PM 57.9 °F - 57.0 °F 97% 30.16 in 5.0 mi Calm Calm - N/A   Clear
10:50 PM 55.4 °F - 55.4 °F 100% 30.18 in 1.8 mi Calm Calm - N/A   Clear
10:52 PM 55.9 °F - 55.0 °F 97% 30.18 in 1.8 mi Calm Calm - N/A   Clear
10:59 PM 55.4 °F - 55.4 °F 100% 30.18 in 3.0 mi Calm Calm - N/A   Clear
11:27 PM 55.4 °F - 53.6 °F 94% 30.19 in 1.5 mi Calm Calm - N/A   Clear
11:29 PM 53.6 °F - 53.6 °F 100% 30.19 in 1.0 mi Calm Calm - N/A   Clear
11:32 PM 53.6 °F - 53.6 °F 100% 30.19 in 0.5 mi Calm Calm - N/A Fog Fog
11:42 PM 55.4 °F - 53.6 °F 94% 30.19 in 1.5 mi ENE 3.5 mph - N/A   Partly Cloudy
11:44 PM 55.4 °F - 53.6 °F 94% 30.19 in 3.0 mi Calm Calm - N/A   Partly Cloudy
11:52 PM 53.1 °F - 53.1 °F 100% 30.19 in 3.0 mi Calm Calm - N/A   Clear